Weather History for Annette Island, AK

Change the Weather History Date:

Friday, January 17, 2014

  Actual Average Record
Temperature  
Mean Temperature 46 °F 37 °F  
Max Temperature 52 °F 42 °F 56 °F (2009)
Min Temperature 39 °F 32 °F 3 °F (2012)
Degree Days  
Heating Degree Days 19 28  
Month to date heating degree days 453 476  
Since 1 July heating degree days 3166 3387  
Cooling Degree Days 0    
Month to date cooling degree days 0  
Year to date cooling degree days 0  
Moisture  
Dew Point 34 °F    
Average Humidity 0    
Maximum Humidity 0    
Minimum Humidity 0    
Precipitation  
Precipitation T in 0.37 in 2.13 in (1956)
Month to date precipitation 6.49 5.98  
Year to date precipitation 6.49 5.98  
Snow  
Snow 0.00 in 0.20 in 8.70 in (1968)
Month to date snowfall 1.0 4.3  
Since 1 July snowfall 10.1 16.0  
Snow Depth 0.00 in    
Sea Level Pressure  
Sea Level Pressure 30.08 in    
Wind  
Wind Speed 7 mph (SE)    
Max Wind Speed 17 mph    
Max Gust Speed 24 mph    
Visibility 10 miles    
Events      
T = Trace of Precipitation, MM = Missing Value Source: NWS Daily Summary

Daily Weather History Graph

Daily Weather History Graph

Search for Another Location

Airport:

Trip Planner

Search our weather history database for the weather conditions in past years. The results will help you decide how hot, cold, wet, or windy it might be!

Date:

Astronomy

Jan. 17, 2014 Rise Set
Actual Time 7:59 AM AKST 3:53 PM AKST
Civil Twilight 7:17 AM AKST 4:36 PM AKST
Nautical Twilight 6:31 AM AKST 5:22 PM AKST
Astronomical Twilight 5:48 AM AKST 6:05 PM AKST
Moon 6:14 PM AKST (1/17) 8:07 AM AKST (1/17)
Length of Visible Light 9h 19m
Length of Day
7h 54m
Full, 98% of the Moon is Illuminated
Jan 17
Full
Jan 23
Last Quarter
Jan 30
New
Feb 6
First Quarter
Feb 14
Full

Hourly Weather History & Observations

Time (AKST) Temp. Windchill Dew Point Humidity Pressure Visibility Wind Dir Wind Speed Gust Speed Precip Events Conditions
12:37 AM 41.0 °F 38.0 °F 41.0 °F 100% 30.26 in 10.0 mi ESE 4.6 mph - N/A   Overcast
12:53 AM 42.1 °F 37.7 °F 42.1 °F 100% 30.26 in 10.0 mi SE 6.9 mph - N/A   Overcast
1:05 AM 42.1 °F 36.6 °F 42.1 °F 100% 30.26 in 7.0 mi SE 9.2 mph - N/A   Overcast
1:53 AM 41.0 °F 37.1 °F 41.0 °F 100% 30.26 in 5.0 mi ESE 5.8 mph - N/A   Overcast
2:27 AM 41.0 °F 39.0 °F 41.0 °F 100% 30.24 in 10.0 mi Variable 3.5 mph - 0.00 in   Overcast
2:53 AM 41.0 °F 38.0 °F 41.0 °F 100% 30.24 in 10.0 mi SE 4.6 mph - 0.00 in   Overcast
3:33 AM 39.9 °F - 39.9 °F 100% 30.21 in 10.0 mi Calm Calm - N/A   Overcast
3:53 AM 39.9 °F - 39.9 °F 100% 30.21 in 10.0 mi Calm Calm - N/A   Overcast
4:33 AM 39.9 °F - 39.9 °F 100% 30.19 in 10.0 mi Calm Calm - N/A   Overcast
4:53 AM 41.0 °F 39.0 °F 41.0 °F 100% 30.19 in 10.0 mi SE 3.5 mph - N/A   Overcast
5:41 AM 42.1 °F 38.4 °F 39.9 °F 92% 30.17 in 10.0 mi SSE 5.8 mph - N/A   Mostly Cloudy
5:53 AM 42.1 °F 38.4 °F 39.9 °F 92% 30.18 in 10.0 mi SE 5.8 mph - N/A   Scattered Clouds
6:53 AM 39.0 °F 34.8 °F 39.0 °F 100% 30.17 in 10.0 mi SSE 5.8 mph - N/A   Partly Cloudy
7:53 AM 42.1 °F 37.1 °F 39.0 °F 89% 30.18 in 10.0 mi ESE 8.1 mph - N/A   Mostly Cloudy
8:53 AM 45.0 °F 39.7 °F 37.9 °F 76% 30.17 in 10.0 mi SE 10.4 mph - N/A   Mostly Cloudy
9:53 AM 46.9 °F - 37.0 °F 68% 30.15 in 10.0 mi SE 13.8 mph 23.0 mph N/A   Mostly Cloudy
10:53 AM 48.0 °F - 36.0 °F 63% 30.12 in 10.0 mi SE 10.4 mph 23.0 mph N/A   Overcast
11:53 AM 48.9 °F - 35.1 °F 59% 30.10 in 10.0 mi SE 11.5 mph 19.6 mph N/A   Clear
12:53 PM 51.1 °F - 33.1 °F 50% 30.08 in 10.0 mi ESE 10.4 mph 19.6 mph N/A   Mostly Cloudy
1:53 PM 51.1 °F - 30.9 °F 46% 30.03 in 10.0 mi SE 13.8 mph 21.9 mph N/A   Mostly Cloudy
2:53 PM 52.0 °F - 28.0 °F 40% 30.00 in 10.0 mi ESE 12.7 mph 21.9 mph N/A   Mostly Cloudy
3:53 PM 52.0 °F - 26.1 °F 37% 29.98 in 10.0 mi SE 11.5 mph - N/A   Mostly Cloudy
4:53 PM 50.0 °F - 28.9 °F 44% 29.95 in 10.0 mi SE 10.4 mph - N/A   Clear
5:53 PM 53.1 °F - 24.1 °F 32% 29.91 in 10.0 mi ESE 15.0 mph 23.0 mph N/A   Clear
6:53 PM 50.0 °F - 26.1 °F 39% 29.88 in 10.0 mi SE 6.9 mph - N/A   Clear
7:53 PM 50.0 °F - 26.1 °F 39% 29.84 in 10.0 mi SE 10.4 mph - N/A   Clear
8:53 PM 53.1 °F - 19.0 °F 26% 29.83 in 10.0 mi SE 17.3 mph 25.3 mph N/A   Clear
9:53 PM 51.1 °F - 25.0 °F 36% 29.82 in 10.0 mi SE 13.8 mph - N/A   Clear
10:53 PM 53.1 °F - 21.9 °F 30% 29.79 in 10.0 mi SE 16.1 mph 31.1 mph N/A   Clear
11:53 PM 50.0 °F - 25.0 °F 38% 29.76 in 10.0 mi SE 17.3 mph 27.6 mph N/A   Clear